This demonstration page uses our WeatherBlox Daily Observations layout. Learn more.

Left ArrowRight Arrow

39.01783, -85.05884

Hourly Observations for October 29, 2019

Temp ( °F °C ) Dew Point ( °F °C ) Humidity (%) Winds ( mph kmh ) Pressure ( in mb ) Visibility ( mi km ) Precip ( " mm )
12:52 am 00:52 Clear 51 10.6 48 8.9 89 89 W 6 9 30.04 1017 9 14 0.00 0.00
1:52 am 01:52 Mostly Clear with Mist and Fog 48 8.9 46 7.8 93 93 SW 3 6 30.05 1018 6 10 0.00 0.00
2:52 am 02:52 Mostly Cloudy with Mist and Fog 50 10 47 8.3 89 89 Calm 30.04 1017 4 6 0.00 0.00
3:52 am 03:52 Cloudy with Mist and Fog 51 10.6 48 8.9 89 89 Calm 30.04 1017 5 8 0.00 0.00
4:17 am 04:17 Cloudy with Mist and Fog 50 10 49 9.4 96 96 SW 3 6 30.06 1018 4 6 0.00 0.00
4:52 am 04:52 Cloudy with Mist and Fog 52 11.1 50 10 93 93 WSW 5 7 30.06 1018 6 10 0.00 0.00
5:35 am 05:35 Cloudy 53 11.7 50 10 89 89 WSW 7 11 30.08 1019 8 13 0.00 0.00
5:52 am 05:52 Cloudy 53 11.7 50 10 89 89 WSW 5 7 30.07 1018 7 11 0.00 0.00
6:14 am 06:14 Cloudy 53 11.7 50 10 89 89 SW 3 6 30.09 1019 7 11 0.00 0.00
6:25 am 06:25 Cloudy 53 11.7 50 10 89 89 S 3 6 30.08 1019 8 13 0.00 0.00
6:43 am 06:43 Mostly Cloudy with Mist and Fog 50 10 47 8.3 89 89 S 6 9 30.09 1019 6 10 0.00 0.00
6:52 am 06:52 Partly Cloudy with Mist and Fog 50 10 48 8.9 93 93 S 5 7 30.07 1018 6 10 0.00 0.00
7:02 am 07:02 Mostly Cloudy with Mist and Fog 50 10 48 8.9 93 93 S 3 6 30.10 1019 6 10 0.00 0.00
7:52 am 07:52 Cloudy 52 11.1 50 10 93 93 S 5 7 30.10 1019 7 11 0.00 0.00
8:52 am 08:52 Cloudy 53 11.7 50 10 89 89 SSW 5 7 30.12 1020 7 11 0.00 0.00
9:52 am 09:52 Cloudy 54 12.2 50 10 87 87 SW 7 11 30.14 1021 8 13 0.00 0.00
10:52 am 10:52 Cloudy 55 12.8 50 10 83 83 SSW 9 15 30.16 1021 10 16 0.00 0.00
11:52 am 11:52 Cloudy 57 13.9 49 9.4 74 74 SW 9 15 30.18 1022 10 16 0.00 0.00
12:52 pm 12:52 Cloudy 58 14.4 50 10 75 75 SW 6 9 30.19 1022 10 16 0.00 0.00
1:52 pm 13:52 Cloudy 59 15 50 10 72 72 SSW 7 11 30.16 1021 10 16 0.00 0.00
3:52 pm 15:52 Cloudy 60 15.6 49 9.4 67 67 S 5 7 30.16 1021 10 16 0.00 0.00
4:52 pm 16:52 Cloudy 60 15.6 49 9.4 67 67 S 8 13 30.17 1022 10 16 0.00 0.00
5:52 pm 17:52 Cloudy 59 15 49 9.4 69 69 S 7 11 30.17 1022 10 16 0.00 0.00
6:52 pm 18:52 Cloudy 59 15 49 9.4 69 69 SSW 5 7 30.18 1022 10 16 0.00 0.00
7:08 pm 19:08 Cloudy 58 14.4 49 9.4 72 72 SW 3 6 30.19 1022 10 16 0.00 0.00
7:52 pm 19:52 Cloudy 58 14.4 49 9.4 72 72 SW 5 7 30.19 1022 10 16 0.00 0.00
8:52 pm 20:52 Mostly Cloudy 56 13.3 49 9.4 77 77 Calm 30.19 1022 10 16 0.00 0.00
10:52 pm 22:52 Mostly Cloudy 54 12.2 48 8.9 80 80 Calm 30.19 1022 9 14 0.00 0.00
11:52 pm 23:52 Cloudy 53 11.7 47 8.3 80 80 Calm 30.18 1022 9 14 0.00 0.00

Powered by AerisWeather